TimeEST,TemperatureF,Dew PointF,Humidity,Sea Level PressureIn,VisibilityMPH,Wind Direction,Wind SpeedMPH,Gust SpeedMPH,PrecipitationIn,Events,Conditions,WindDirDegrees,DateUTC
12:53 AM,34.0,21.0,59,29.94,10.0,SSW,16.1,20.7,N/A,,Clear,210,2013-01-19 05:53:00
1:53 AM,34.0,21.0,59,29.93,10.0,SSW,10.4,21.9,N/A,,Clear,210,2013-01-19 06:53:00
2:53 AM,35.1,21.9,59,29.93,10.0,SSW,15.0,20.7,N/A,,Clear,210,2013-01-19 07:53:00
3:53 AM,35.1,21.9,59,29.92,10.0,SW,11.5,-,N/A,,Clear,220,2013-01-19 08:53:00
4:53 AM,36.0,23.0,59,29.91,10.0,SW,11.5,-,N/A,,Clear,220,2013-01-19 09:53:00
5:53 AM,36.0,24.1,62,29.91,10.0,SSW,10.4,-,N/A,,Partly Cloudy,210,2013-01-19 10:53:00
6:53 AM,36.0,25.0,64,29.91,10.0,SW,8.1,-,N/A,,Partly Cloudy,220,2013-01-19 11:53:00
7:53 AM,37.9,26.1,62,29.91,10.0,SW,10.4,17.3,N/A,,Mostly Cloudy,230,2013-01-19 12:53:00
8:53 AM,37.9,26.1,62,29.92,10.0,SW,12.7,20.7,N/A,,Mostly Cloudy,220,2013-01-19 13:53:00
9:53 AM,39.0,27.0,62,29.93,10.0,SW,10.4,21.9,N/A,,Mostly Cloudy,230,2013-01-19 14:53:00
10:53 AM,41.0,27.0,57,29.92,10.0,SW,6.9,-,N/A,,Mostly Cloudy,220,2013-01-19 15:53:00
11:53 AM,42.1,27.0,55,29.87,10.0,SW,9.2,-,N/A,,Mostly Cloudy,220,2013-01-19 16:53:00
12:53 PM,42.1,28.0,58,29.83,10.0,SW,11.5,20.7,N/A,,Mostly Cloudy,220,2013-01-19 17:53:00
1:53 PM,44.1,28.0,53,29.79,10.0,SSW,12.7,24.2,N/A,,Mostly Cloudy,210,2013-01-19 18:53:00
2:53 PM,45.0,28.0,52,29.75,10.0,SSW,17.3,28.8,N/A,,Overcast,200,2013-01-19 19:53:00
3:53 PM,45.0,28.9,53,29.73,10.0,SSW,12.7,20.7,N/A,,Overcast,210,2013-01-19 20:53:00
4:53 PM,45.0,28.9,53,29.72,10.0,SW,12.7,21.9,N/A,,Overcast,220,2013-01-19 21:53:00
5:53 PM,44.1,30.0,58,29.69,10.0,SSW,18.4,28.8,N/A,,Overcast,210,2013-01-19 22:53:00
6:53 PM,44.1,30.0,58,29.68,10.0,SSW,15.0,19.6,N/A,,Overcast,210,2013-01-19 23:53:00
7:53 PM,43.0,30.9,62,29.66,10.0,SW,15.0,28.8,N/A,,Partly Cloudy,220,2013-01-20 00:53:00
8:53 PM,43.0,30.9,62,29.62,10.0,SW,19.6,28.8,N/A,,Partly Cloudy,220,2013-01-20 01:53:00
9:53 PM,43.0,32.0,65,29.60,10.0,SW,17.3,24.2,N/A,,Mostly Cloudy,230,2013-01-20 02:53:00
10:53 PM,43.0,33.1,68,29.57,10.0,WSW,15.0,28.8,N/A,,Overcast,240,2013-01-20 03:53:00
11:53 PM,42.8,32.0,66,29.53,10.0,WSW,24.2,33.4,N/A,,Overcast,240,2013-01-20 04:53:00